TimeCST,TemperatureF,Dew PointF,Humidity,Sea Level PressureIn,VisibilityMPH,Wind Direction,Wind SpeedMPH,Gust SpeedMPH,PrecipitationIn,Events,Conditions,WindDirDegrees,DateUTC
12:53 AM,64.9,61.0,87,30.01,10.0,SE,6.9,-,N/A,,Mostly Cloudy,130,2013-01-13 06:53:00
1:53 AM,66.0,61.0,84,29.99,10.0,SE,11.5,-,N/A,,Clear,130,2013-01-13 07:53:00
2:53 AM,66.0,62.1,87,29.98,10.0,SSE,9.2,-,N/A,,Scattered Clouds,150,2013-01-13 08:53:00
3:22 AM,66.2,62.6,88,29.98,10.0,SSE,11.5,-,N/A,,Mostly Cloudy,160,2013-01-13 09:22:00
3:53 AM,66.9,62.1,84,29.98,10.0,SSE,8.1,-,N/A,,Mostly Cloudy,150,2013-01-13 09:53:00
4:53 AM,68.0,63.0,84,30.01,10.0,South,5.8,-,N/A,,Overcast,170,2013-01-13 10:53:00
5:53 AM,68.0,62.6,83,30.01,10.0,SSE,9.2,-,N/A,,Overcast,160,2013-01-13 11:53:00
6:53 AM,68.0,63.0,84,30.00,10.0,SE,9.2,-,N/A,,Overcast,140,2013-01-13 12:53:00
7:53 AM,69.1,63.0,81,30.04,10.0,SE,4.6,-,N/A,,Overcast,130,2013-01-13 13:53:00
8:53 AM,71.1,64.0,78,30.04,10.0,SE,6.9,-,N/A,,Mostly Cloudy,130,2013-01-13 14:53:00
9:03 AM,71.6,64.4,78,30.05,10.0,SE,6.9,-,N/A,,Scattered Clouds,140,2013-01-13 15:03:00
9:10 AM,71.6,64.4,78,30.05,10.0,SE,6.9,-,N/A,,Mostly Cloudy,140,2013-01-13 15:10:00
9:53 AM,73.0,63.0,71,30.05,10.0,SSE,10.4,-,N/A,,Mostly Cloudy,160,2013-01-13 15:53:00
10:13 AM,73.4,62.6,69,30.05,10.0,SSE,11.5,-,N/A,,Overcast,150,2013-01-13 16:13:00
10:53 AM,73.9,63.0,68,30.04,10.0,SSE,10.4,-,N/A,,Overcast,150,2013-01-13 16:53:00
11:01 AM,75.2,62.6,65,30.04,10.0,SSE,9.2,-,N/A,,Mostly Cloudy,160,2013-01-13 17:01:00
11:53 AM,75.9,63.0,64,30.00,10.0,South,13.8,19.6,N/A,,Overcast,170,2013-01-13 17:53:00
12:10 PM,75.2,62.6,65,30.00,10.0,South,15.0,-,N/A,,Overcast,170,2013-01-13 18:10:00
12:28 PM,75.2,62.6,65,30.00,10.0,South,13.8,19.6,N/A,,Mostly Cloudy,170,2013-01-13 18:28:00
12:53 PM,75.9,64.0,67,29.99,10.0,SSE,10.4,-,N/A,,Overcast,160,2013-01-13 18:53:00
1:53 PM,75.9,64.0,67,29.97,10.0,SSE,8.1,-,0.00,,Overcast,160,2013-01-13 19:53:00
2:53 PM,75.9,64.0,67,29.97,10.0,SSE,10.4,-,N/A,,Overcast,160,2013-01-13 20:53:00
3:53 PM,75.9,64.0,67,29.97,10.0,South,13.8,-,N/A,,Mostly Cloudy,170,2013-01-13 21:53:00
4:53 PM,75.0,64.0,69,29.99,10.0,South,12.7,-,N/A,,Overcast,180,2013-01-13 22:53:00
5:53 PM,73.0,64.9,76,30.01,10.0,South,9.2,-,0.00,,Mostly Cloudy,180,2013-01-13 23:53:00
6:53 PM,72.0,66.0,81,30.01,10.0,South,10.4,-,N/A,,Overcast,170,2013-01-14 00:53:00
7:53 PM,71.1,66.9,87,30.00,10.0,South,8.1,-,0.02,,Overcast,180,2013-01-14 01:53:00
8:36 PM,71.6,66.2,83,30.01,10.0,South,8.1,-,N/A,,Overcast,180,2013-01-14 02:36:00
8:53 PM,71.1,66.0,84,30.02,10.0,SSE,9.2,-,N/A,,Overcast,160,2013-01-14 02:53:00
9:53 PM,71.1,66.0,84,30.03,10.0,South,10.4,-,N/A,,Overcast,180,2013-01-14 03:53:00
10:53 PM,70.0,66.9,90,30.03,7.0,South,8.1,-,0.02,Rain,Rain,170,2013-01-14 04:53:00
11:07 PM,69.8,66.2,88,30.03,9.0,SSE,4.6,-,0.02,Rain,Light Rain,150,2013-01-14 05:07:00
11:53 PM,69.1,66.9,93,30.01,5.0,SE,5.8,-,0.13,Rain,Light Rain,140,2013-01-14 05:53:00